Tracking 19651 objects as of 23-Apr-2019
HD Live streaming from Space Station
objects crossing your sky now

SL-16 DEB

Track SL-16 DEB now!
10-day predictions


NORAD ID: 22618
Int'l Code: 1993-016AC
Perigee: 849.4 km
Apogee: 1,078.5 km
Inclination: 71.0 °
Period: 104.2 minutes
Semi major axis: 7334 km
RCS: 0.0532 m2 (small)
Launch date: March 26, 1993
Source: Commonwealth of Independent States (former USSR) (CIS)
Launch site: TYURATAM MISSILE AND SPACE COMPLEX (TTMTR)

Note: This is SATELLITE DEBRIS
aabbcc
Your satellite tracking list
Your tracking list is empty




NASA's NSSDC Master Catalog

Two Line Element Set (TLE):
1 22618U 93016AC  19112.41325675 +.00000005 +00000-0 +40556-4 0  9994
2 22618 070.9905 103.2403 0156209 101.4409 260.4286 13.81993336313366
Source of the keplerian elements: AFSPC